Tracking 19281 objects as of 16-Nov-2018
HD Live streaming from Space Station
objects crossing your sky now

SURCAL 150B

Track SURCAL 150B now!
10-day predictions
SURCAL 150B is classified as:


NORAD ID: 2909
Int'l Code: 1967-053J
Perigee: 696.6 km
Apogee: 697.5 km
Inclination: 69.9 °
Period: 98.6 minutes
Semi major axis: 7068 km
RCS: 0.061 m2 (small)
Launch date: May 31, 1967
Source: United States (US)
Launch site: AIR FORCE WESTERN TEST RANGE (AFWTR)
aabbcc
Your satellite tracking list
Your tracking list is empty




NASA's NSSDC Master Catalog

Two Line Element Set (TLE):
1  2909U 67053J   18320.15081827  .00000704  00000-0  15709-3 0  9993
2  2909  69.9469 163.8523 0000633 138.7003 221.4185 14.61005466672749
Source of the keplerian elements: AFSPC